Location: Houston
(29.7631°N, 95.3631°W)
Time: 16:14:11
(UTC-05:00)

UNISAT 6 - Visible Passes

Search period start: 19 September 2021 00:00
Search period end: 29 September 2021 00:00
Orbit: 607 x 687 km, 97.7° (Epoch: 19 September)

Date Brightness Start Highest point End Pass type
(mag) Time Alt. Az. Time Alt. Az. Time Alt. Az.
19 Sep ? 20:34:22 10° N 20:39:00 60° WNW 20:43:34 10° SSW visible
20 Sep ? 21:00:26 10° NNW 21:04:30 30° WNW 21:08:33 10° SW visible
21 Sep ? 19:49:16 10° NNE 19:53:39 39° E 19:57:58 10° SSE visible
21 Sep ? 21:27:09 10° NNW 21:29:55 16° WNW 21:32:41 10° WSW visible
22 Sep ? 06:43:03 10° ESE 06:45:41 16° ENE 06:48:22 10° NNE visible
22 Sep ? 20:14:36 10° NNE 20:19:18 80° ESE 20:23:57 10° S visible
23 Sep ? 20:40:21 10° N 20:44:52 50° WNW 20:49:21 10° SSW visible
24 Sep ? 19:30:08 10° NE 19:33:50 23° E 19:37:29 10° SSE visible
24 Sep ? 21:06:32 10° NNW 21:10:22 25° WNW 21:14:09 10° SW visible
25 Sep ? 19:55:04 10° NNE 19:59:34 46° E 20:03:59 10° S visible
25 Sep ? 21:33:35 10° NW 21:35:45 13° WNW 21:37:53 10° W visible
26 Sep ? 20:20:31 10° N 20:25:12 86° WNW 20:29:48 10° SSW visible
27 Sep ? 20:46:22 10° N 20:50:45 41° WNW 20:55:04 10° SW visible
28 Sep ? 19:35:48 10° NE 19:39:45 27° E 19:43:39 10° SSE visible
28 Sep ? 21:12:42 10° NNW 21:16:12 21° WNW 21:19:40 10° WSW visible
